Tracking 29494 objects as of 8-Sep-2024
HD Live streaming from Space Station
objects crossing your sky now

FENGYUN 1C DEB

Track FENGYUN 1C DEB now!
10-day predictions


NORAD ID: 31674
Int'l Code: 1999-025CCG
Perigee: 757.8 km
Apogee: 798.5 km
Inclination: 98.9 °
Period: 100.3 minutes
Semi major axis: 7149 km
RCS: 0.0141 m2 (small)
Launch date: May 10, 1999
Source: People's Republic of China (PRC)
Launch site: Taiyaun Space Center, China (TSC)

Note: This is SATELLITE DEBRIS
Your satellite tracking list
Your tracking list is empty




NASA's NSSDC Master Catalog

Two Line Element Set (TLE):
1 31674U 99025CCG 24246.74497065  .00021259  00000-0  72444-2 0  9998
2 31674  98.9481 252.8145 0028485 231.3114 128.5522 14.36223854897019
Source of the keplerian elements: AFSPC